Location: Rancho Santa Fe Post Office
(33.0184°N, 117.2026°W)
Time: 05:56:44
(UTC+00:00)

Cosmos 1850 Rocket - Pass Details

Date: 10 September 2024
Orbit: 751 x 783 km, 74.0° (Epoch: 09 October)

Event Time Altitude Azimuth Distance (km) Brightness Sun altitude
Rises 12:39:47 0° 200° (SSW) 3,208 6.9 -11.1°
Reaches altitude 10° 12:42:09 10° 203° (SSW) 2,290 6.1 -10.6°
Maximum altitude 12:47:20 72° 287° (WNW) 808 4.0 -9.6°
Drops below altitude 10° 12:52:37 10° 12° (NNE) 2,325 6.8 -8.5°
Sets 12:55:01 0° 15° (NNE) 3,260 7.6 -8.0°
